MET'MAP v2.0
soon released !

Expected late october,
this new version will be
more efficient, smarter,
and hosted on a brand new
server x3 powerfull...
...and still free !


Not compatible ?
Try the mobile version !

LOG IN : | Subscribe | Disclaimer | Who is Orbifly ? |
ICAO code :

TAF - LFBY Dax Seyresse - 04 Dec 2020 08:46 UTC
Data Sources :     NOAA   


- Airport Elevation : 106 ft
- IATA code : XDA
- No reported NOTAMs.


LFBY - Dax Seyresse

Latest METAR recorded : 2020/12/04 07:34 LFBY 040734Z 27005KT 220V320 3000 -RA FEW010 SCT028TCU BKN033 06/04 Q0992
NO TAF


MET'MAP, your aeronautical weather chart ! - Copyright ORBIFLY December 2007

Programming & Development : Alexandra Zaïnal
Co-Developer : Marc-Olivier Méhu
Technical & hardware support : Manuel Goepfert
Concept & Financing : Baudouin d'Aumeries